This demonstration page uses our WeatherBlox Daily Observations layout. Learn more.

Left ArrowRight Arrow

Hourly Observations for April 17, 2018

Temp ( °F °C ) Dew Point ( °F °C ) Humidity (%) Winds ( mph kmh ) Pressure ( in mb ) Visibility ( mi km ) Precip ( " mm )
12:59 am 00:59 Cloudy 51 10.6 35 1.7 54 54 W 17 28 29.78 1008 10 16 0.00 0.00
1:59 am 01:59 Cloudy 48 8.9 35 1.7 61 61 WNW 20 31 29.79 1009 10 16 0.00 0.00
2:59 am 02:59 Cloudy with Light Rain 45 7.2 36 2.2 71 71 W 15 24 29.81 1010 10 16 0.01 0.25
3:59 am 03:59 Cloudy 44 6.7 36 2.2 73 73 NW 12 19 29.81 1010 10 16 0.01 0.25
4:59 am 04:59 Cloudy 43 6.1 28 -2.2 56 56 WNW 18 30 29.82 1010 10 16 0.00 0.00
5:59 am 05:59 Mostly Cloudy 42 5.6 27 -2.8 55 55 W 17 28 29.85 1011 10 16 0.00 0.00
6:59 am 06:59 Mostly Sunny 42 5.6 27 -2.8 55 55 WNW 15 24 29.86 1011 10 16 0.00 0.00
7:59 am 07:59 Mostly Sunny 43 6.1 26 -3.3 51 51 W 16 26 29.89 1012 10 16 0.00 0.00
8:59 am 08:59 Partly Cloudy 44 6.7 25 -3.9 47 47 W 17 28 29.91 1013 10 16 0.00 0.00
9:59 am 09:59 Partly Cloudy 47 8.3 24 -4.4 41 41 WNW 17 28 29.91 1013 10 16 0.00 0.00
10:59 am 10:59 Partly Cloudy 47 8.3 24 -4.4 41 41 W 16 26 29.90 1013 10 16 0.00 0.00
11:59 am 11:59 Partly Cloudy 49 9.4 26 -3.3 41 41 W 16 26 29.87 1012 10 16 0.00 0.00
12:59 pm 12:59 Mostly Cloudy 51 10.6 28 -2.2 41 41 W 18 30 29.84 1011 10 16 0.00 0.00
1:59 pm 13:59 Mostly Cloudy 50 10 28 -2.2 43 43 W 16 26 29.83 1010 10 16 0.00 0.00
2:59 pm 14:59 Mostly Cloudy 50 10 27 -2.8 41 41 W 17 28 29.82 1010 10 16 0.00 0.00
3:59 pm 15:59 Partly Cloudy 52 11.1 28 -2.2 40 40 W 16 26 29.80 1009 10 16 0.00 0.00
4:59 pm 16:59 Partly Cloudy 54 12.2 29 -1.7 38 38 W 9 15 29.78 1009 10 16 0.00 0.00
5:59 pm 17:59 Mostly Sunny 55 12.8 30 -1.1 38 38 WNW 14 22 29.79 1009 10 16 0.00 0.00
6:59 pm 18:59 Partly Cloudy 53 11.7 28 -2.2 38 38 WNW 7 11 29.80 1009 10 16 0.00 0.00
7:59 pm 19:59 Mostly Clear 47 8.3 33 0.6 59 59 Calm 29.82 1010 10 16 0.00 0.00
8:59 pm 20:59 Mostly Clear 46 7.8 35 1.7 66 66 Calm 29.83 1010 10 16 0.00 0.00
9:59 pm 21:59 Mostly Clear 45 7.2 36 2.2 71 71 Calm 29.85 1011 10 16 0.00 0.00
10:59 pm 22:59 Clear 49 9.4 36 2.2 61 61 ENE 8 13 29.87 1011 10 16 0.00 0.00
11:59 pm 23:59 Clear 48 8.9 33 0.6 56 56 ENE 8 13 29.87 1012 10 16 0.00 0.00

Powered by AerisWeather